McGuire AFB, NJ

3:50 PM EDT on April 30, 2017 (GMT -0400)
McGuire Air Force Base

Weather History for KWRI - November, 2013

Change the Weather History Date:

Saturday, November 30, 2013

  Actual Average Record
Temperature  
Mean Temperature 30 °F -  
Max Temperature 39 °F 50 °F 73 °F (2001)
Min Temperature 20 °F 31 °F 20 °F (2013)
Degree Days  
Heating Degree Days 36    
Moisture  
Dew Point 21 °F    
Average Humidity 66    
Maximum Humidity 78    
Minimum Humidity 52    
Precipitation  
Precipitation 0.00 in - - ()
Sea Level Pressure  
Sea Level Pressure 30.60 in    
Wind  
Wind Speed 7 mph (NE)    
Max Wind Speed 10 mph    
Max Gust Speed -    
Visibility 10 miles    
Events      
Averages and records for this station are not official NWS values.
T = Trace of Precipitation, MM = Missing Value Source: NWS Daily Summary

Daily Weather History Graph

Daily Weather History Graph

Search for Another Location

Airport or City:

Trip Planner

Search our weather history database for the weather conditions in past years. The results will help you decide how hot, cold, wet, or windy it might be!

Date:

Astronomy

Nov. 30, 2013 Rise Set
Actual Time 7:00 AM EST 4:33 PM EST
Civil Twilight 6:30 AM EST 5:03 PM EST
Nautical Twilight 5:56 AM EST 5:37 PM EST
Astronomical Twilight 5:24 AM EST 6:09 PM EST
Moon 4:08 AM EST 2:56 PM EST
Length of Visible Light 10h 33m
Length of Day
9h 33m
Waning Crescent, 7% of the Moon is Illuminated
Nov 30
Waning Crescent
Dec 2
New
Dec 9
First Quarter
Dec 17
Full
Dec 25
Last Quarter

Hourly Weather History & Observations

Time (EST) Temp. Windchill Dew Point Humidity Pressure Visibility Wind Dir Wind Speed Gust Speed Precip Events Conditions
12:58 AM 21.4 °F 11.9 °F 14.5 °F 75% 30.72 in 10.0 mi North 8.1 mph - N/A   Clear
1:58 AM 21.0 °F 12.4 °F 14.4 °F 75% 30.73 in 10.0 mi North 6.9 mph - N/A   Clear
2:58 AM 22.1 °F 12.8 °F 14.2 °F 72% 30.73 in 10.0 mi North 8.1 mph - N/A   Clear
3:58 AM 21.2 °F 12.6 °F 12.9 °F 70% 30.72 in 10.0 mi North 6.9 mph - N/A   Clear
4:58 AM 21.2 °F 14.9 °F 12.0 °F 68% 30.72 in 10.0 mi North 4.6 mph - N/A   Clear
5:58 AM 20.8 °F 13.2 °F 11.8 °F 68% 30.72 in 10.0 mi North 5.8 mph - N/A   Clear
6:58 AM 20.8 °F 13.2 °F 12.0 °F 69% 30.72 in 10.0 mi North 5.8 mph - N/A   Clear
7:58 AM 24.4 °F 16.5 °F 16.0 °F 70% 30.73 in 10.0 mi NNE 6.9 mph - N/A   Clear
8:58 AM 29.7 °F 20.7 °F 20.3 °F 68% 30.73 in 10.0 mi NE 10.4 mph - N/A   Clear
9:58 AM 32.9 °F 25.3 °F 21.6 °F 63% 30.73 in 10.0 mi NE 9.2 mph - N/A   Clear
10:58 AM 36.3 °F 29.5 °F 23.0 °F 59% 30.69 in 10.0 mi NE 9.2 mph - N/A   Clear
11:58 AM 38.8 °F 32.6 °F 24.1 °F 55% 30.66 in 10.0 mi East 9.2 mph - N/A   Clear
12:58 PM 39.4 °F 33.8 °F 23.9 °F 54% 30.62 in 10.0 mi East 8.1 mph - N/A   Scattered Clouds
1:58 PM 39.6 °F 34.0 °F 23.4 °F 52% 30.59 in 10.0 mi East 8.1 mph - N/A   Scattered Clouds
2:58 PM 38.7 °F 31.8 °F 22.3 °F 52% 30.57 in 10.0 mi ESE 10.4 mph - N/A   Clear
3:58 PM 38.1 °F 35.7 °F 23.5 °F 56% 30.56 in 10.0 mi ESE 3.5 mph - N/A   Overcast
4:58 PM 37.2 °F - 24.6 °F 60% 30.55 in 10.0 mi East 2.3 mph - N/A   Overcast
5:11 PM 37.4 °F - 24.8 °F 60% 30.52 in 10.0 mi East 2.3 mph - N/A   Overcast
5:36 PM 37.4 °F 34.9 °F 24.8 °F 60% 30.51 in 10.0 mi ENE 3.5 mph - N/A   Overcast
5:58 PM 36.3 °F - 26.1 °F 66% 30.52 in 10.0 mi NE 2.3 mph - N/A   Overcast
6:58 PM 35.4 °F 31.5 °F 26.2 °F 69% 30.50 in 10.0 mi NNE 4.6 mph - N/A   Overcast
7:58 PM 35.2 °F 32.4 °F 27.0 °F 72% 30.47 in 10.0 mi North 3.5 mph - N/A   Overcast
8:58 PM 35.6 °F 32.8 °F 27.5 °F 72% 30.45 in 10.0 mi North 3.5 mph - N/A   Overcast
9:58 PM 35.1 °F - 27.7 °F 74% 30.42 in 10.0 mi North 2.3 mph - N/A   Overcast
10:58 PM 35.4 °F 29.7 °F 27.9 °F 74% 30.40 in 10.0 mi NNW 6.9 mph - N/A   Overcast
11:58 PM 34.3 °F 29.2 °F 28.0 °F 78% 30.37 in 10.0 mi NNW 5.8 mph - N/A   Overcast